Voltar ao catálogo

WGS F2

USA 204

AtivoMilitarGEO
NORAD 34713·PAYLOAD·🇺🇸 United States

Lançado Apr 4, 2009 de Cape Canaveral Space Force Station

Loading…

TLE

AtualizadoSource: Space-Track

Época: Sep 14, 2026, 14:04 UTC

1 34713U 09017A   26257.58654106  .00000000  00000-0  00000-0 0  9992
2 34713   0.0190 154.7489 0000366 345.3192 122.1617  1.00271229 46510

Acompanhe WGS F2 em tempo real com AllMySat

Download on the App Store